Regional Weather Roundup
Issued by NWS

Home | Current Version | Previous Version | Text Only | Print | Product List | Glossary Off
Versions: 1 2 3 4 5 6 7 8 9 10 11 12 13 14 15 16 17 18 19 20 21 22 23 24 25 26 27 28 29 30 31 32 33 34 35 36 37 38 39 40 41 42 43 44 45 46 47 48 49 50

000
ASUS44 KMEG 040110
RWRTN
TENNESSEE HOURLY STATE WEATHER ROUNDUP
NATIONAL WEATHER SERVICE MEMPHIS TN
800 PM CDT THU SEP 03 2015

TNZ002-004-019-021-049-052-054-088>092-040200-
WEST TENNESSEE

CITY           SKY/WX    TMP DP  RH WIND       PRES   REMARKS
MEMPHIS INTL   MOCLDY    86  69  56 NW3       29.92S HX  90
NWS MEMPHIS      N/A     81 N/A N/A MISG        N/A
JACKSON        PTCLDY    78  73  84 S3        29.93R
DYERSBURG      CLEAR     81  72  74 CALM      29.93R
UNION CITY     CLEAR     81  70  69 CALM      29.92R
PARIS          CLEAR     75  70  83 CALM      29.95R
LEXINGTON      PTCLDY    77  75  94 CALM      29.93S
$$

TNZ008-025-027-028-033-062-065-066-040200-
NORTH MIDDLE TENNESSEE

CITY           SKY/WX    TMP DP  RH WIND       PRES   REMARKS
NASHVILLE      MOCLDY    85  65  51 CALM      29.94R
CLARKSVILLE    MOCLDY    79  67  66 SE3       29.94S
SMYRNA         CLEAR     79  69  71 CALM      29.95R
COOKEVILLE     CLEAR     73  70  88 CALM      29.98R
CROSSVILLE     CLEAR     73  67  81 CALM      30.03R
$$

TNZ061-075-076-078-094-096-097-040200-
SOUTH MIDDLE TENNESSEE

CITY           SKY/WX    TMP DP  RH WIND       PRES   REMARKS
FAYETTEVILLE   CLEAR     79  68  69 CALM      29.97R
TULLAHOMA      CLEAR     77  68  73 CALM      29.99R
WINCHESTER     PTCLDY    75  72  88 CALM      29.98R
MCMINNVILLE    MOCLDY    79  73  83 CALM      29.98R
COLUMBIA       CLEAR     79  79 100 CALM      29.94R
SHELBYVILLE    PTCLDY    79  73  83 CALM      29.97R
$$

TNZ017-018-042-046-047-040200-
NORTHEAST TENNESSEE

CITY           SKY/WX    TMP DP  RH WIND       PRES   REMARKS
TRI CITIES     PTCLDY    74  67  78 CALM      30.00R
ELIZABETHTON   PTCLDY    70  66  88 CALM      30.01R
$$

TNZ012-013-036-069-073-074-040200-
CENTRAL EAST TENNESSEE

CITY           SKY/WX    TMP DP  RH WIND       PRES   REMARKS
KNOXVILLE      PTCLDY    79  66  64 NE3       29.95R
OAK RIDGE      CLEAR     80  70  71 CALM      29.98R
GATLINBURG     CLEAR     79  64  61 CALM      29.96R
MORRISTOWN     CLEAR     75  70  83 CALM      30.00R
$$

TNZ083-085-099-040200-
SOUTHEAST TENNESSEE

CITY           SKY/WX    TMP DP  RH WIND       PRES   REMARKS
CHATTANOOGA    MOCLDY    83  69  62 CALM      29.95R
$$

SKY/WX REPORTED AS FAIR MEANS FEW OR NO CLOUDS BELOW
12 THOUSAND FEET.




USA.gov is the U.S. government's official web portal to all federal, state and local government web resources and services.